Regional Weather Roundup
Issued by NWS

Home | Current Version | Previous Version | Text Only | Print | Product List | Glossary On
Versions: 1 2 3 4 5 6 7 8 9 10 11 12 13 14 15 16 17 18 19 20 21 22 23 24 25 26 27 28 29 30 31 32 33 34 35 36 37 38 39 40 41 42 43 44 45 46 47 48 49 50
000
ASUS46 KLOX 230412
RWRCA

SOUTHERN CALIFORNIA WEATHER ROUNDUP
NATIONAL WEATHER SERVICE OXNARD CALIFORNIA
900 PM PDT FRI AUG 22 2014

NOTE: "FAIR" INDICATES FEW OR NO CLOUDS BELOW 12,000 FEET WITH NO
SIGNIFICANT WEATHER AND/OR OBSTRUCTIONS TO VISIBILITY.

  -  STATIONS PRECEEDED BY AN ASTERISK (*) ARE NOT NWS OR FAA
     STATIONS AND ARE NOT SUBJECT TO NWS AND FAA QUALITY CONTROL.

CAZ041-042-087-230500-
LA AND ORANGE COUNTY COASTAL AREAS


CITY           SKY/WX    TMP DP  RH WIND       PRES   REMARKS
L.A. DOWNTOWN  CLOUDY    70  63  78 CALM      29.94R
L.A. AIRPORT   CLOUDY    69  63  81 SW9       29.95R
LONG BEACH     CLEAR     70  63  78 NW9       29.94R

CITY           SKY/WX    TMP DP  RH WIND       PRES   REMARKS
AVALON           N/A     66 N/A N/A S2          N/A
FULLERTON      CLEAR     71  63  75 S6        29.93R
*GETTY CENTER    N/A     61  61 100 SW7         N/A
HAWTHORNE      CLOUDY    70  64  81 W8        29.95R
*LOS ALAMITOS  CLEAR     68  64  86 S3        29.94R
*REDONDO BEACH   N/A     68  62  81 SW1       29.94R
SANTA ANA      MOCLDY    71  62  73 W5        29.94R
STA MONICA APT CLOUDY    69  62  78 SW7       29.95R
*UCLA            N/A     64  61  88 SW8       29.93R

$$

CAZ547-548-048-230500-
LA COUNTY VALLEYS AND INLAND EMPIRE


CITY           SKY/WX    TMP DP  RH WIND       PRES   REMARKS
BURBANK        CLEAR     68  62  81 S7        29.95R
VAN NUYS       CLEAR     72  59  63 E8        29.94R

CITY           SKY/WX    TMP DP  RH WIND       PRES   REMARKS
CORONA AIRPORT CLEAR     71  62  73 W7        29.94R
*CHATSWORTH      N/A     74  62  66 CALM      29.89R
CHINO          CLEAR     71  61  70 W14       29.94R
MARCH AFB      CLEAR     73  60  62 NW6       29.97R
*NORTHRIDGE      N/A     73  57  56 E2          N/A
ONTARIO        CLEAR     74  61  63 W13       29.94R
*PASADENA        N/A     70  64  83 E3          N/A
POMONA         CLEAR     72  61  68 SW8       29.98
RIVERSIDE      CLEAR     73  59  61 W7        29.94R
SAN BERNARDINO CLEAR     75  48  38 SW7       29.96R
*SAN GABRIEL     N/A     71  62  73 CALM      29.90R
*WHITEMAN AP   NOT AVBL
*WOODLAND HILL   N/A     72  55  56 S2          N/A

$$

CAZ054-055-230500-
LA AND SAN BERNARDINO COUNTY MOUNTAINS


CITY           SKY/WX    TMP DP  RH WIND       PRES   REMARKS
*ACTON           N/A     74  49  40 E2G16       N/A
*BIG BEAR AIRP CLEAR     55  48  76 W8        30.22S
*BIG PINES       N/A     57  45  64 CALM        N/A
*CHILAO          N/A     63  47  56 SE6         N/A
MT WILSON NWS    N/A     61  46  59 MISG        N/A
SANDBERG       CLEAR     67  53  61 S9        30.10R
*WARM SPRINGS    N/A     64  56  74 S5          N/A

$$

CAZ028-029-059-060-099-230500-
ANTELOPE VALLEY AND SURROUNDING AREAS


CITY           SKY/WX    TMP DP  RH WIND       PRES   REMARKS
LANCASTER      CLEAR     75  47  36 SW17      29.95R
PALMDALE       CLEAR     76  48  37 SW24      29.96R

CITY           SKY/WX    TMP DP  RH WIND       PRES   REMARKS
29 PALMS       CLEAR     84  43  23 SW22G31   29.94R
BARSTOW/DAGGET CLEAR     85  52  32 SW20G30   29.86R
BISHOP         CLEAR     80  33  18 N17G24    29.92R
CHINA LAKE     CLEAR     85  39  19 SW9G23    29.80R
EDWARDS AFB    CLEAR     78  49  36 SW20      29.91R
MOJAVE         FAIR      77  52  41 S15       29.95R
NEEDLES        CLEAR     90  53  28 S8        29.83R
VICTORVILLE    CLEAR     77  52  41 S13G18    29.96R

$$

CAZ039-040-230500-
VENTURA AND SANTA BARBARA COUNTY COAST


CITY           SKY/WX    TMP DP  RH WIND       PRES   REMARKS
CAMARILLO      CLOUDY    68  61  78 SW6       29.95R
NWS OXNARD       N/A     65  60  85 CALM      29.95R
OXNARD AIRPORT CLOUDY    65  61  87 W8        29.95R
*POINT MUGU    CLOUDY    69  62  78 W7        29.95R
SBA APT/GOLETA PTCLDY    64  60  87 SW3       29.93R
*SANTA BARBARA   N/A     66  59  80 CALM      30.02R
*VENTURA         N/A     64  61  88 SW3       29.99S

$$

CAZ044-045-230500-
VENTURA COUNTY VALLEYS


CITY           SKY/WX    TMP DP  RH WIND       PRES   REMARKS
*SIMI VALLEY     N/A     66  61  84 W1        29.90R
*OJAI            N/A     68  60  74 NW1       29.87R
*FILLMORE        N/A     66  61  83 CALM      29.85R

$$

CAZ053-230500-
VENTURA COUNTY MOUNTAINS


CITY           SKY/WX    TMP DP  RH WIND       PRES   REMARKS
*LOCKWOOD VLY    N/A     64  48  55 MISG        N/A
*ROSE VALLEY     N/A     64  55  72 MISG        N/A

$$

CAZ034-035-036-230500-
CENTRAL COAST AND SANTA YNEZ VALLEY


CITY           SKY/WX    TMP DP  RH WIND       PRES   REMARKS
SAN LUIS OBISP CLEAR     61  57  87 NW5       29.95R
SANTA MARIA    MOCLDY    63  57  82 CALM      29.96S

CITY           SKY/WX    TMP DP  RH WIND       PRES   REMARKS
*CAL POLY SLO    N/A     63  59  88 CALM        N/A
*CAMBRIA         N/A     60  58  92 NE3       29.84S
*LOMPOC        PTCLDY    63  55  77 W7        29.96S
*PISMO BEACH     N/A     62  59  91 SW3       29.96R
*SANTA YNEZ    FAIR      66  55  68 W8        29.95R

$$

CAZ037-038-051-230500-
SAN LUIS OBISPO COUNTY INTERIOR AND CUYAMA VALLEY


CITY           SKY/WX    TMP DP  RH WIND       PRES   REMARKS
*CUYAMA          N/A     73  53  47 W5        29.84R
PASO ROBLES    CLEAR     69  46  43 SW9       29.91R

$$

CAZ032-033-061-230500-
SOUTHERN DESERTS


CITY           SKY/WX    TMP DP  RH WIND       PRES   REMARKS
BLYTHE         CLEAR     88  65  46 CALM      29.81R HX  90
IMPERIAL       CLEAR     84  55  36 W13       29.80R
PALM SPRINGS   CLEAR     90  53  28 N8        29.84R
THERMAL        CLEAR     86  64  47 NW3       29.77R

$$

ELSEWHERE ACROSS THE WESTERN UNITED STATES AND MEXICO


CITY           SKY/WX    TMP DP  RH WIND       PRES   REMARKS
DENVER, CO     CLOUDY    60  58  92 S5        30.08R
GRAND CANYON,    N/A    N/A N/A N/A MISG        N/A
HONOLULU, HI   PTSUNNY   82  64  54 NE16      29.96R
KAHULUI, MAUI  MOSUNNY   79  66  65 NE9       29.97R
LAKE TAHOE, CA CLEAR     64  35  34 S10G23    30.12S
LAS VEGAS, NV  CLEAR     87  51  28 S20G28    29.79R
MAMMOTH LAKES, FAIR      61  34  36 W10       30.18R
MEXICO CITY, M CLOUDY    64  50  59 NE6       30.35R
PHOENIX, AZ    CLEAR     89  57  33 NW6       29.87R
PORTLAND, OR   PTCLDY    72  53  51 NW8       30.04R
RENO, NV       CLEAR     72  38  29 W13G24    30.01R
SALT LAKE CITY CLOUDY    60  56  86 CALM      29.98F
SAN DIEGO, CA  PTCLDY    71  63  75 NW7       29.96R
SAN FRANCISCO, MOCLDY    62  58  86 W14       29.93R
SAN JOSE, CA   PTCLDY    64  57  78 NW9       29.93R
SEATTLE, WA    PTCLDY    69  55  60 N7        30.09R
TIJUANA, MEX   CLEAR     68  61  77 W8        29.98S

$$

STATION/POSITION TIME  TEMP    WIND        PRES    VSBY  WAVE
                       AIR SEA DIR/SP/G                  HT/PER
                 (UTC) (F)     (DEG/KT/KT) (MB)    (MI)  (FT/S)
POINT ARGUELLO B NOT AVBL
WEST SANTA BARBA 0400   63 64  300/ 14/ 17 1013.2R         4/13
POINT CONCEPTION NOT AVBL
EAST SANTA BARBA 0400   64 67  250/ 14/ 16 1013.8R
SANTA MONICA BAY 0400   66 72  300/  8/ 10 1013.6R         4/12



USA.gov is the U.S. government's official web portal to all federal, state and local government web resources and services.